Latest Weather Observations for Onslow Airport

IDW60801

Issued at 2:05 pm WST Sunday 31 August 2014 (issued every 30 minutes, with the page automatically refreshed every 10 minutes)

About weather observations | Map of weather stations | Latest weather observations for WA | Other Formats
Station Details ID: 005017 Name: ONSLOW AIRPORT Lat: -21.67 Lon: 115.11 Height: 10.5 m
Data from the previous 72 hours. | See also: Recent months at Onslow Airport
Date/Time
WST
Temp
°C
App
Temp
°C
Dew
Point
Rel
Hum
%
Delta-T
°C
Wind Press
QNH
hPa
Press
MSL
hPa
Rain
since 9 am
mm
Dir
 
Spd
km/h
Gust
km/h
Spd
kts
Gust
kts
31/02:00pm 32.9 27.3 -2.7 10 16.6 NNW 17 22 9 12 1014.2 1014.2 0.0
31/01:30pm 33.2 29.2 -5.5 8 17.2 NNE 7 13 4 7 1014.4 1014.4 0.0
31/01:00pm 33.2 28.1 -5.5 8 17.2 SE 13 19 7 10 1014.6 1014.6 0.0
31/12:30pm 32.1 26.3 -4.7 9 16.5 SSE 17 22 9 12 1015.0 1015.0 0.0
31/12:00pm 32.4 27.0 -4.5 9 16.6 SE 15 22 8 12 1015.5 1015.5 0.0
31/11:30am 31.8 26.3 -2.3 11 15.9 SE 17 24 9 13 1016.0 1016.0 0.0
31/11:00am 31.2 25.5 0.6 14 14.9 SE 20 24 11 13 1016.4 1016.4 0.0
31/10:30am 29.8 23.5 1.3 16 13.9 SE 24 28 13 15 1016.9 1016.9 0.0
31/10:00am 28.3 22.5 2.5 19 12.7 SE 22 28 12 15 1017.2 1017.2 0.0
31/09:30am 27.4 20.9 2.5 20 12.2 SE 26 33 14 18 1017.3 1017.3 0.0
31/09:00am 26.4 20.0 3.0 22 11.5 SSE 26 37 14 20 1017.3 1017.3 0.0
31/08:30am 24.4 17.8 4.2 27 10.0 SSE 28 32 15 17 1017.2 1017.2 0.0
31/08:00am 22.5 16.6 4.1 30 9.0 SSE 24 30 13 16 1017.0 1017.0 0.0
31/07:30am 20.2 15.1 4.3 35 7.7 SSE 20 24 11 13 1016.9 1016.9 0.0
31/07:00am 19.1 14.3 4.8 39 6.9 SSE 19 24 10 13 1016.7 1016.7 0.0
31/06:30am 18.8 13.4 4.6 39 6.8 SSE 22 26 12 14 1016.2 1016.2 0.0
31/06:00am 19.1 13.2 3.7 36 7.3 S 24 32 13 17 1016.0 1016.0 0.0
31/05:30am 19.1 13.1 3.3 35 7.4 S 24 30 13 16 1015.9 1015.9 0.0
31/05:00am 19.3 13.3 3.1 34 7.6 S 24 28 13 15 1015.8 1015.8 0.0
31/04:30am 19.5 14.4 4.0 36 7.4 S 20 26 11 14 1015.8 1015.8 0.0
31/04:00am 19.9 13.8 2.7 32 8.0 S 24 28 13 15 1015.8 1015.8 0.0
31/03:30am 19.9 13.8 2.7 32 8.0 S 24 30 13 16 1015.7 1015.7 0.0
31/03:00am 19.4 14.0 2.7 33 7.7 S 20 24 11 13 1015.8 1015.8 0.0
31/02:30am 18.8 13.9 2.2 33 7.6 S 17 20 9 11 1015.9 1015.9 0.0
31/02:00am 19.0 14.3 3.2 35 7.4 SSW 17 19 9 10 1015.9 1015.9 0.0
31/01:30am 19.5 14.8 3.2 34 7.6 SSW 17 22 9 12 1016.2 1016.2 0.0
31/01:00am 19.1 14.4 3.3 35 7.4 SSW 17 20 9 11 1016.3 1016.3 0.0
31/12:30am 18.9 14.8 4.3 38 7.0 SSW 15 20 8 11 1016.6 1016.6 0.0
31/12:00am 19.4 15.4 5.1 39 6.9 SSW 15 19 8 10 1016.7 1016.7 0.0
 
Date/Time
WST
Temp
°C
App
Temp
°C
Dew
Point
Rel
Hum
%
Delta-T
°C
Wind Press
QNH
hPa
Press
MSL
hPa
Rain
since 9 am
mm
Dir
 
Spd
km/h
Gust
km/h
Spd
kts
Gust
kts
30/11:30pm 19.8 15.5 5.1 38 7.2 SSW 17 19 9 10 1016.7 1016.7 0.0
30/11:00pm 20.6 16.5 6.2 39 7.2 SSW 17 19 9 10 1016.7 1016.7 0.0
30/10:30pm 20.3 16.1 5.5 38 7.3 SW 17 17 9 9 1016.7 1016.7 0.0
30/10:00pm 20.4 15.8 3.6 33 8.0 SW 17 20 9 11 1016.9 1016.9 0.0
30/09:30pm 21.0 16.9 4.1 33 8.2 SW 15 17 8 9 1017.0 1017.0 0.0
30/09:00pm 21.1 16.6 4.2 33 8.2 SW 17 19 9 10 1017.0 1017.0 0.0
30/08:30pm 21.5 17.4 4.1 32 8.4 SW 15 17 8 9 1017.0 1017.0 0.0
30/08:00pm 22.5 18.5 5.0 32 8.7 WSW 15 17 8 9 1016.8 1016.8 0.0
30/07:30pm 22.9 19.6 6.2 34 8.5 WSW 13 17 7 9 1016.5 1016.5 0.0
30/07:00pm 22.6 21.1 14.2 59 4.9 W 15 19 8 10 1016.2 1016.2 0.0
30/06:30pm 23.0 21.9 14.3 58 5.1 W 13 19 7 10 1016.1 1016.1 0.0
30/06:00pm 24.9 23.2 14.7 53 6.1 W 17 19 9 10 1015.9 1015.9 0.0
30/05:30pm 27.1 24.2 12.3 39 8.6 W 19 22 10 12 1015.7 1015.7 0.0
30/05:00pm 28.3 24.3 9.1 30 10.6 W 20 26 11 14 1015.6 1015.6 0.0
30/04:30pm 29.5 25.4 8.5 27 11.6 W 20 26 11 14 1015.5 1015.5 0.0
30/04:00pm 30.7 25.2 2.0 16 14.2 WNW 20 26 11 14 1015.3 1015.3 0.0
30/03:30pm 29.9 24.0 3.8 19 13.3 W 24 28 13 15 1015.3 1015.3 0.0
30/03:00pm 29.9 25.1 8.9 27 11.6 WNW 24 26 13 14 1015.4 1015.4 0.0
30/02:30pm 31.4 26.3 5.8 20 13.6 WNW 22 24 12 13 1015.6 1015.6 0.0
30/02:00pm 30.8 26.8 9.1 26 12.1 WNW 20 24 11 13 1015.9 1015.9 0.0
30/01:30pm 31.6 27.0 6.6 21 13.5 WNW 20 26 11 14 1016.3 1016.3 0.0
30/01:00pm 32.5 28.1 -6.0 8 16.9 WSW 9 13 5 7 1016.6 1016.6 0.0
30/12:30pm 31.7 27.6 -6.6 8 16.5 SE 7 15 4 8 1017.0 1017.0 0.0
30/12:00pm 31.9 27.1 -6.4 8 16.6 E 11 15 6 8 1017.4 1017.4 0.0
30/11:30am 31.4 26.3 -5.2 9 16.1 SE 13 20 7 11 1017.8 1017.8 0.0
30/11:00am 31.4 25.7 -3.8 10 15.9 ESE 17 22 9 12 1018.0 1018.0 0.0
30/10:30am 30.3 24.5 -0.1 14 14.5 ESE 20 24 11 13 1018.4 1018.4 0.0
30/10:00am 28.6 23.7 2.0 18 13.0 SE 17 20 9 11 1018.7 1018.7 0.0
30/09:30am 24.4 20.8 5.2 29 9.7 SE 13 17 7 9 1018.9 1018.9 0.0
30/09:00am 22.0 19.1 6.7 37 7.8 SE 11 15 6 8 1019.0 1019.0 0.2
30/08:30am 19.6 17.0 7.7 46 6.1 SE 11 13 6 7 1018.8 1018.8 0.2
30/08:00am 18.0 15.8 10.9 63 3.8 SSE 13 15 7 8 1018.6 1018.6 0.2
30/07:30am 15.9 14.0 11.9 77 2.2 S 13 15 7 8 1018.4 1018.4 0.2
30/07:00am 14.4 12.1 11.7 84 1.4 S 15 17 8 9 1017.9 1017.9 0.2
30/06:30am 14.2 11.4 11.5 84 1.4 S 17 19 9 10 1017.6 1017.6 0.2
30/06:00am 14.3 12.1 12.0 86 1.2 S 15 15 8 8 1017.4 1017.4 0.2
30/05:30am 14.4 12.8 11.7 84 1.4 S 11 13 6 7 1017.2 1017.2 0.2
30/05:00am 16.3 13.9 12.8 80 1.9 SSW 17 17 9 9 1017.1 1017.1 0.2
30/04:30am 16.6 14.7 12.9 79 2.1 SSW 15 15 8 8 1017.1 1017.1 0.2
30/04:00am 17.4 15.1 13.1 76 2.4 SSW 17 20 9 11 1017.1 1017.1 0.0
30/03:30am 17.4 15.7 13.5 78 2.2 SSW 15 19 8 10 1017.3 1017.3 0.0
30/03:00am 17.4 16.2 13.9 80 2.0 SSW 13 15 7 8 1017.4 1017.4 0.0
30/02:30am 17.7 16.9 15.0 84 1.6 SSW 13 17 7 9 1017.5 1017.5 0.0
30/02:00am 17.3 16.4 14.9 86 1.4 SW 13 15 7 8 1017.7 1017.7 0.0
30/01:30am 17.9 17.7 15.7 87 1.3 SW 11 11 6 6 1017.9 1017.9 0.0
30/01:00am 18.0 17.9 16.0 88 1.2 SW 11 13 6 7 1017.9 1017.9 0.0
30/12:30am 18.5 18.5 16.3 87 1.3 WSW 11 13 6 7 1018.0 1018.0 0.0
30/12:00am 18.8 18.7 16.9 89 1.1 W 13 15 7 8 1018.0 1018.0 0.0
 
Date/Time
WST
Temp
°C
App
Temp
°C
Dew
Point
Rel
Hum
%
Delta-T
°C
Wind Press
QNH
hPa
Press
MSL
hPa
Rain
since 9 am
mm
Dir
 
Spd
km/h
Gust
km/h
Spd
kts
Gust
kts
29/11:30pm 19.3 19.5 17.6 90 1.0 W 13 15 7 8 1018.1 1018.1 0.0
29/11:00pm 19.9 20.1 18.6 92 0.8 WSW 15 17 8 9 1018.2 1018.2 0.0
29/10:30pm 18.8 18.8 17.1 90 1.0 W 13 15 7 8 1018.3 1018.3 0.0
29/10:00pm 19.3 19.4 17.4 89 1.2 W 13 15 7 8 1018.4 1018.4 0.0
29/09:30pm 19.5 20.1 17.6 89 1.2 WNW 11 13 6 7 1018.3 1018.3 0.0
29/09:00pm 19.5 20.2 17.1 86 1.5 NW 9 13 5 7 1018.2 1018.2 0.0
29/08:30pm 20.0 19.8 16.8 82 1.9 NW 13 15 7 8 1018.0 1018.0 0.0
29/08:00pm 19.8 19.3 15.0 74 2.8 W 11 11 6 6 1017.6 1017.6 0.0
29/07:30pm 20.4 19.8 14.5 69 3.4 W 11 11 6 6 1017.3 1017.3 0.0
29/07:00pm 21.7 21.3 16.2 71 3.3 W 13 15 7 8 1016.8 1016.8 0.0
29/06:30pm 22.6 22.4 16.6 69 3.7 WNW 13 15 7 8 1016.4 1016.4 0.0
29/06:00pm 24.4 23.1 15.9 59 5.2 W 17 20 9 11 1016.1 1016.1 0.0
29/05:30pm 25.6 23.5 15.3 53 6.2 WNW 20 24 11 13 1016.1 1016.1 0.0
29/05:00pm 27.1 24.9 13.4 42 8.1 WNW 17 20 9 11 1016.0 1016.0 0.0
29/04:30pm 28.5 25.3 11.1 34 9.9 NW 19 24 10 13 1015.9 1015.9 0.0
29/04:00pm 29.2 25.6 9.8 30 10.9 NW 19 22 10 12 1016.0 1016.0 0.0
29/03:30pm 29.7 25.8 8.7 27 11.6 NW 19 22 10 12 1016.0 1016.0 0.0
29/03:00pm 30.4 26.1 7.0 23 12.6 NW 19 22 10 12 1016.1 1016.1 0.0
29/02:30pm 30.6 25.8 4.4 19 13.5 NW 19 22 10 12 1016.3 1016.3 0.0
29/02:00pm 32.2 27.5 3.2 16 14.8 NW 17 20 9 11 1016.4 1016.4 0.0
29/01:30pm 31.1 26.0 0.5 14 14.8 NNW 17 20 9 11 1016.7 1016.7 0.0
29/01:00pm 31.9 27.6 3.0 16 14.7 NNW 15 20 8 11 1017.0 1017.0 0.0
29/12:30pm 31.5 27.4 7.9 23 13.0 NW 19 24 10 13 1017.2 1017.2 0.0
29/12:00pm 32.7 28.7 0.7 13 15.7 NE 11 15 6 8 1017.5 1017.5 0.0
29/11:30am 31.7 26.8 -3.6 10 16.0 ENE 13 19 7 10 1017.8 1017.8 0.0
29/11:00am 30.9 26.0 -3.0 11 15.4 NE 13 20 7 11 1018.2 1018.2 0.0
29/10:30am 30.7 26.1 -0.8 13 14.9 ENE 13 17 7 9 1018.5 1018.5 0.0
29/10:00am 29.1 25.7 3.9 20 12.8 E 11 13 6 7 1018.7 1018.7 0.0
29/09:30am 26.8 24.2 6.2 27 10.7 E 9 11 5 6 1018.8 1018.8 0.0
29/09:00am 24.6 21.7 6.4 31 9.4 E 11 13 6 7 1018.7 1018.7 0.0
29/08:30am 22.8 20.3 6.6 35 8.3 E 9 11 5 6 1018.5 1018.5 0.0
29/08:00am 20.0 17.4 6.0 40 6.9 ESE 9 11 5 6 1018.3 1018.3 0.0
29/07:30am 18.1 16.1 8.7 54 4.9 ESE 9 11 5 6 1018.0 1018.0 0.0
29/07:00am 16.1 14.5 8.6 61 3.8 ESE 7 11 4 6 1017.7 1017.7 0.0
29/06:30am 15.4 13.8 8.6 64 3.5 ESE 7 9 4 5 1017.5 1017.5 0.0
29/06:00am 15.4 12.9 8.4 63 3.5 SE 11 13 6 7 1017.1 1017.1 0.0
29/05:30am 14.8 12.0 8.7 67 3.1 ESE 13 15 7 8 1016.9 1016.9 0.0
29/05:00am 14.5 12.7 9.5 72 2.6 ESE 9 11 5 6 1016.8 1016.8 0.0
29/04:30am 14.3 12.4 9.1 71 2.6 SE 9 9 5 5 1016.8 1016.8 0.0
29/04:00am 14.1 12.0 9.7 75 2.3 SE 11 13 6 7 1016.7 1016.7 0.0
29/03:30am 15.2 13.9 11.4 78 2.0 SE 9 11 5 6 1016.8 1016.8 0.0
29/03:00am 15.6 14.6 12.4 81 1.8 SE 9 13 5 7 1016.9 1016.9 0.0
29/02:30am 16.4 15.8 13.5 83 1.6 SE 9 11 5 6 1017.0 1017.0 0.0
29/02:00am 16.9 16.2 14.4 85 1.4 SE 11 15 6 8 1016.9 1016.9 0.0
29/01:30am 17.4 17.6 15.7 90 1.0 S 9 11 5 6 1017.0 1017.0 0.0
29/01:00am 17.2 17.6 15.4 89 1.0 SSW 7 9 4 5 1017.3 1017.3 0.0
29/12:30am 17.6 17.4 15.8 89 1.1 SW 11 13 6 7 1017.7 1017.7 0.0
29/12:00am 18.0 18.7 16.2 89 1.1 SW 7 9 4 5 1018.1 1018.1 0.0
 
Date/Time
WST
Temp
°C
App
Temp
°C
Dew
Point
Rel
Hum
%
Delta-T
°C
Wind Press
QNH
hPa
Press
MSL
hPa
Rain
since 9 am
mm
Dir
 
Spd
km/h
Gust
km/h
Spd
kts
Gust
kts
28/11:30pm 18.8 19.4 16.8 88 1.2 SW 9 11 5 6 1018.2 1018.2 0.0
28/11:00pm 18.5 19.2 16.1 86 1.4 WSW 7 9 4 5 1018.3 1018.3 0.0
28/10:30pm 19.1 19.9 16.3 84 1.7 WSW 7 7 4 4 1018.4 1018.4 0.0
28/10:00pm 19.7 20.6 16.2 80 2.1 WSW 6 6 3 3 1018.2 1018.2 0.0
28/09:30pm 20.0 20.7 16.2 79 2.3 SW 7 9 4 5 1018.0 1018.0 0.0
28/09:00pm 20.1 20.5 16.3 79 2.3 WSW 9 11 5 6 1017.8 1017.8 0.0
28/08:30pm 19.9 19.9 15.1 74 2.8 WSW 9 9 5 5 1017.7 1017.7 0.0
28/08:00pm 19.9 18.7 14.0 69 3.4 W 13 15 7 8 1017.5 1017.5 0.0
28/07:30pm 21.2 20.4 15.1 68 3.6 W 13 15 7 8 1017.0 1017.0 0.0
28/07:00pm 22.0 21.8 16.7 72 3.2 W 13 17 7 9 1016.6 1016.6 0.0
28/06:30pm 22.4 22.0 16.2 68 3.8 WNW 13 15 7 8 1016.2 1016.2 0.0
28/06:00pm 24.2 23.1 15.4 58 5.3 W 15 19 8 10 1016.0 1016.0 0.0
28/05:30pm 25.6 22.9 13.5 47 7.1 W 20 28 11 15 1015.9 1015.9 0.0
28/05:00pm 26.7 23.3 11.2 38 8.8 WNW 20 24 11 13 1015.6 1015.6 0.0
28/04:30pm 28.0 24.2 9.8 32 10.2 WNW 20 26 11 14 1015.3 1015.3 0.0
28/04:00pm 28.4 23.4 6.5 25 11.6 NW 22 28 12 15 1015.4 1015.4 0.0
28/03:30pm 29.2 23.1 2.5 18 13.2 NW 24 30 13 16 1015.3 1015.3 0.0
28/03:00pm 29.6 23.6 3.5 19 13.2 NW 24 28 13 15 1015.3 1015.3 0.0
28/02:30pm 29.5 24.3 7.4 25 11.9 NW 24 30 13 16 1015.6 1015.6 0.0

Other Formats:

Comma delimited format used in spreadsheet applications
http://www.bom.gov.au/fwo/IDW60801/IDW60801.95305.axf

JavaScript Object Notation format (JSON) in row-major order
http://www.bom.gov.au/fwo/IDW60801/IDW60801.95305.json